QPF
0.05 0.11 0.15 0.18 0.20 0.19 0.18 0.18 0.19 0.22 0.18 0.15 0.18 0.14 0.09 0.06 0.07 0.06 0.05 0.03 0.02 0.01 0.01 0.00 0.00 0.00 0.00 0.00 0.01 0.00 0.00 0.00 0.00 0.00 0.01 0.03 0.03 0.04
0.02 0.04 0.08 0.13 0.18 0.17 0.16 0.18 0.19 0.19 0.18 0.16 0.17 0.17 0.15 0.09 0.07 0.06 0.05 0.04 0.02 0.01 0.00 0.00 0.00 0.00 0.00 0.00 0.00 0.00 0.00 0.00 0.00 0.00 0.00 0.01 0.01 0.02
0.01 0.02 0.03 0.06 0.10 0.13 0.13 0.13 0.18 0.20 0.18 0.18 0.21 0.23 0.23 0.16 0.10 0.07 0.04 0.02 0.01 0.01 0.00 0.00 0.00 0.00 0.00 0.00 0.00 0.00 0.00 0.00 0.00 0.00 0.00 0.00 0.00 0.01
0.01 0.02 0.02 0.03 0.05 0.08 0.11 0.11 0.14 0.20 0.19 0.20 0.27 0.28 0.26 0.22 0.18 0.10 0.06 0.03 0.01 0.01 0.00 0.00 0.00 0.00 0.00 0.00 0.00 0.00 0.00 0.00 0.00 0.00 0.00 0.01 0.01 0.01
0.01 0.02 0.02 0.03 0.03 0.05 0.08 0.09 0.11 0.17 0.20 0.18 0.24 0.31 0.32 0.30 0.25 0.17 0.10 0.05 0.03 0.01 0.00 0.00 0.00 0.00 0.00 0.00 0.00 0.00 0.00 0.00 0.00 0.00 0.00 0.00 0.01 0.00
0.02 0.02 0.03 0.03 0.03 0.03 0.05 0.06 0.08 0.13 0.19 0.20 0.20 0.26 0.31 0.34 0.34 0.22 0.13 0.07 0.04 0.01 0.00 0.00 0.00 0.00 0.00 0.00 0.00 0.00 0.00 0.00 0.00 0.00 0.00 0.00 0.00 0.00
0.03 0.03 0.02 0.03 0.03 0.03 0.03 0.04 0.06 0.08 0.14 0.18 0.20 0.22 0.26 0.31 0.28 0.25 0.17 0.10 0.06 0.02 0.01 0.00 0.00 0.00 0.00 0.00 0.00 0.00 0.00 0.00 0.00 0.00 0.00 0.00 0.00 0.00
0.04 0.04 0.04 0.03 0.03 0.03 0.03 0.03 0.04 0.04 0.07 0.12 0.17 0.20 0.20 0.27 0.27 0.24 0.20 0.12 0.06 0.03 0.02 0.01 0.00 0.00 0.00 0.00 0.00 0.00 0.00 0.01 0.00 0.00 0.01 0.01 0.00 0.00
0.04 0.04 0.04 0.04 0.04 0.02 0.02 0.02 0.02 0.03 0.04 0.06 0.12 0.16 0.15 0.19 0.26 0.24 0.21 0.13 0.06 0.04 0.03 0.02 0.01 0.00 0.00 0.00 0.00 0.01 0.01 0.01 0.01 0.01 0.01 0.01 0.01 0.01
0.03 0.03 0.03 0.04 0.05 0.04 0.03 0.02 0.01 0.01 0.02 0.03 0.05 0.11 0.12 0.12 0.20 0.25 0.23 0.20 0.13 0.07 0.04 0.03 0.01 0.00 0.00 0.00 0.01 0.01 0.01 0.01 0.01 0.01 0.01 0.01 0.01 0.01
0.02 0.03 0.03 0.03 0.03 0.04 0.04 0.03 0.02 0.01 0.01 0.02 0.03 0.07 0.12 0.12 0.13 0.23 0.28 0.29 0.22 0.11 0.05 0.03 0.01 0.01 0.00 0.00 0.00 0.01 0.01 0.01 0.01 0.01 0.01 0.01 0.01 0.01
0.02 0.04 0.04 0.03 0.03 0.03 0.04 0.03 0.02 0.01 0.01 0.01 0.02 0.04 0.07 0.10 0.12 0.15 0.22 0.26 0.25 0.20 0.10 0.04 0.02 0.01 0.01 0.00 0.00 0.00 0.00 0.01 0.01 0.01 0.01 0.00 0.01 0.01
0.02 0.03 0.05 0.04 0.03 0.03 0.03 0.02 0.02 0.02 0.03 0.02 0.01 0.02 0.04 0.07 0.09 0.11 0.15 0.21 0.20 0.15 0.10 0.07 0.04 0.02 0.01 0.01 0.00 0.00 0.00 0.00 0.00 0.00 0.00 0.00 0.00 0.00
0.03 0.03 0.04 0.04 0.03 0.02 0.02 0.02 0.02 0.02 0.02 0.02 0.02 0.01 0.02 0.04 0.05 0.08 0.10 0.16 0.19 0.17 0.12 0.08 0.05 0.03 0.02 0.01 0.01 0.00 0.00 0.00 0.00 0.00 0.00 0.00 0.00 0.00
0.02 0.03 0.04 0.04 0.02 0.02 0.02 0.02 0.02 0.02 0.01 0.01 0.02 0.02 0.02 0.03 0.04 0.07 0.09 0.13 0.18 0.18 0.14 0.10 0.06 0.03 0.02 0.01 0.01 0.01 0.00 0.00 0.00 0.00 0.00 0.00 0.00 0.00
0.02 0.03 0.04 0.04 0.03 0.02 0.01 0.01 0.01 0.01 0.01 0.01 0.01 0.02 0.02 0.03 0.05 0.06 0.09 0.12 0.17 0.18 0.14 0.11 0.08 0.05 0.02 0.01 0.00 0.00 0.00 0.00 0.00 0.00 0.00 0.00 0.00 0.00
0.02 0.03 0.04 0.03 0.03 0.02 0.01 0.01 0.01 0.01 0.01 0.01 0.01 0.01 0.02 0.02 0.04 0.07 0.10 0.12 0.12 0.13 0.13 0.12 0.08 0.06 0.04 0.02 0.01 0.00 0.00 0.00 0.00 0.00 0.00 0.00 0.00 0.00
0.02 0.03 0.04 0.03 0.03 0.03 0.02 0.01 0.01 0.01 0.00 0.00 0.00 0.01 0.01 0.02 0.03 0.07 0.11 0.13 0.13 0.09 0.10 0.11 0.10 0.08 0.07 0.05 0.02 0.01 0.00 0.00 0.00 0.00 0.00 0.00 0.00 0.00
0.02 0.03 0.03 0.03 0.03 0.03 0.02 0.01 0.01 0.01 0.01 0.01 0.01 0.01 0.02 0.02 0.04 0.07 0.11 0.13 0.14 0.12 0.10 0.11 0.10 0.09 0.06 0.05 0.03 0.01 0.01 0.00 0.00 0.00 0.00 0.00 0.00 0.00
0.02 0.03 0.04 0.03 0.03 0.03 0.03 0.02 0.02 0.02 0.02 0.01 0.01 0.01 0.03 0.03 0.04 0.07 0.09 0.12 0.13 0.13 0.12 0.11 0.09 0.07 0.05 0.03 0.02 0.02 0.02 0.01 0.01 0.00 0.00 0.00 0.00 0.00
0.02 0.03 0.03 0.03 0.02 0.02 0.03 0.02 0.02 0.03 0.02 0.02 0.02 0.02 0.04 0.05 0.05 0.06 0.07 0.10 0.13 0.12 0.11 0.10 0.08 0.07 0.06 0.06 0.04 0.03 0.03 0.02 0.02 0.01 0.00 0.00 0.00 0.00
0.03 0.03 0.03 0.03 0.03 0.03 0.03 0.03 0.03 0.04 0.04 0.04 0.03 0.03 0.04 0.05 0.06 0.07 0.08 0.08 0.11 0.11 0.10 0.10 0.11 0.10 0.08 0.07 0.06 0.05 0.04 0.04 0.03 0.02 0.02 0.01 0.01 0.00
0.03 0.03 0.02 0.02 0.02 0.03 0.03 0.03 0.04 0.05 0.05 0.04 0.04 0.04 0.04 0.06 0.07 0.09 0.09 0.09 0.10 0.12 0.12 0.13 0.13 0.11 0.10 0.08 0.07 0.07 0.07 0.06 0.05 0.03 0.02 0.01 0.01 0.01
MSLP
1009.13 1009.08 1009.02 1008.96 1008.86 1008.73 1008.56 1008.35 1008.14 1007.94 1007.79 1007.72 1007.76 1007.90 1008.14 1008.47 1008.86 1009.29 1009.73 1010.16 1010.57 1010.95 1011.31 1011.66 1012.01 1012.36 1012.72 1013.10 1013.51 1013.93 1014.37 1014.81 1015.24 1015.64 1016.00 1016.30 1016.52 1016.66
1008.92 1008.94 1008.95 1008.94 1008.88 1008.78 1008.62 1008.43 1008.22 1008.03 1007.89 1007.83 1007.87 1008.01 1008.26 1008.59 1008.98 1009.40 1009.83 1010.25 1010.65 1011.02 1011.37 1011.70 1012.02 1012.34 1012.67 1013.01 1013.37 1013.76 1014.16 1014.58 1014.99 1015.38 1015.73 1016.02 1016.23 1016.35
1008.53 1008.60 1008.67 1008.71 1008.71 1008.66 1008.56 1008.42 1008.26 1008.13 1008.04 1008.02 1008.10 1008.28 1008.54 1008.88 1009.27 1009.69 1010.11 1010.53 1010.92 1011.28 1011.62 1011.93 1012.23 1012.52 1012.81 1013.12 1013.43 1013.77 1014.13 1014.50 1014.88 1015.24 1015.57 1015.84 1016.02 1016.11
1007.98 1008.09 1008.21 1008.31 1008.37 1008.39 1008.37 1008.31 1008.24 1008.20 1008.19 1008.25 1008.38 1008.60 1008.90 1009.25 1009.65 1010.07 1010.49 1010.89 1011.28 1011.64 1011.97 1012.28 1012.56 1012.84 1013.10 1013.37 1013.64 1013.93 1014.23 1014.55 1014.87 1015.19 1015.48 1015.72 1015.87 1015.93
1007.34 1007.47 1007.62 1007.77 1007.90 1007.99 1008.06 1008.10 1008.14 1008.19 1008.28 1008.42 1008.63 1008.90 1009.23 1009.61 1010.01 1010.43 1010.85 1011.26 1011.65 1012.01 1012.35 1012.66 1012.96 1013.22 1013.48 1013.72 1013.95 1014.19 1014.43 1014.69 1014.95 1015.22 1015.46 1015.65 1015.78 1015.81
1006.67 1006.80 1006.97 1007.15 1007.33 1007.49 1007.64 1007.78 1007.92 1008.07 1008.26 1008.48 1008.76 1009.08 1009.45 1009.84 1010.26 1010.68 1011.11 1011.52 1011.92 1012.30 1012.66 1013.00 1013.31 1013.60 1013.85 1014.08 1014.30 1014.49 1014.69 1014.89 1015.09 1015.29 1015.48 1015.64 1015.74 1015.75
1006.00 1006.12 1006.29 1006.49 1006.70 1006.92 1007.14 1007.36 1007.59 1007.83 1008.10 1008.40 1008.73 1009.09 1009.49 1009.90 1010.32 1010.75 1011.18 1011.61 1012.03 1012.44 1012.84 1013.22 1013.57 1013.89 1014.17 1014.42 1014.62 1014.80 1014.96 1015.11 1015.27 1015.42 1015.56 1015.69 1015.77 1015.78
1005.36 1005.46 1005.62 1005.82 1006.06 1006.31 1006.59 1006.87 1007.16 1007.48 1007.81 1008.16 1008.53 1008.93 1009.34 1009.76 1010.19 1010.62 1011.06 1011.50 1011.95 1012.40 1012.84 1013.28 1013.69 1014.06 1014.39 1014.67 1014.89 1015.08 1015.23 1015.36 1015.48 1015.59 1015.71 1015.81 1015.89 1015.93
1004.77 1004.84 1004.98 1005.19 1005.43 1005.71 1006.02 1006.35 1006.69 1007.05 1007.43 1007.82 1008.22 1008.63 1009.04 1009.46 1009.88 1010.32 1010.76 1011.22 1011.69 1012.18 1012.68 1013.17 1013.65 1014.09 1014.48 1014.82 1015.09 1015.30 1015.47 1015.60 1015.72 1015.82 1015.93 1016.03 1016.12 1016.19
1004.20 1004.27 1004.40 1004.60 1004.86 1005.16 1005.49 1005.85 1006.23 1006.62 1007.03 1007.44 1007.85 1008.26 1008.67 1009.08 1009.49 1009.91 1010.35 1010.81 1011.31 1011.83 1012.37 1012.91 1013.45 1013.97 1014.44 1014.84 1015.19 1015.46 1015.67 1015.84 1015.98 1016.10 1016.22 1016.35 1016.47 1016.58
1003.67 1003.74 1003.88 1004.08 1004.36 1004.68 1005.04 1005.43 1005.83 1006.25 1006.67 1007.09 1007.51 1007.91 1008.31 1008.70 1009.09 1009.49 1009.92 1010.37 1010.86 1011.39 1011.96 1012.55 1013.14 1013.72 1014.27 1014.76 1015.18 1015.53 1015.82 1016.05 1016.24 1016.41 1016.57 1016.72 1016.88 1017.04
1003.18 1003.26 1003.42 1003.66 1003.96 1004.31 1004.70 1005.11 1005.54 1005.98 1006.41 1006.84 1007.25 1007.64 1008.02 1008.39 1008.75 1009.12 1009.51 1009.94 1010.42 1010.94 1011.51 1012.12 1012.75 1013.38 1013.99 1014.55 1015.06 1015.51 1015.88 1016.20 1016.47 1016.70 1016.91 1017.11 1017.31 1017.50
1002.74 1002.86 1003.06 1003.34 1003.67 1004.05 1004.47 1004.91 1005.37 1005.82 1006.26 1006.69 1007.10 1007.48 1007.83 1008.17 1008.50 1008.83 1009.18 1009.57 1010.01 1010.50 1011.05 1011.65 1012.29 1012.95 1013.61 1014.24 1014.83 1015.36 1015.84 1016.25 1016.60 1016.91 1017.18 1017.43 1017.67 1017.89
1002.39 1002.56 1002.81 1003.12 1003.50 1003.91 1004.36 1004.82 1005.29 1005.75 1006.20 1006.63 1007.02 1007.39 1007.72 1008.04 1008.33 1008.62 1008.93 1009.27 1009.65 1010.09 1010.60 1011.17 1011.79 1012.45 1013.14 1013.82 1014.47 1015.09 1015.65 1016.16 1016.60 1016.98 1017.32 1017.62 1017.89 1018.14
1002.15 1002.37 1002.67 1003.02 1003.42 1003.86 1004.32 1004.79 1005.26 1005.72 1006.17 1006.59 1006.98 1007.33 1007.65 1007.94 1008.21 1008.47 1008.73 1009.01 1009.34 1009.72 1010.17 1010.69 1011.27 1011.92 1012.60 1013.30 1014.01 1014.68 1015.32 1015.90 1016.43 1016.89 1017.28 1017.63 1017.92 1018.19
1002.04 1002.30 1002.63 1003.00 1003.41 1003.85 1004.30 1004.77 1005.23 1005.68 1006.11 1006.52 1006.90 1007.24 1007.56 1007.83 1008.08 1008.32 1008.55 1008.79 1009.06 1009.38 1009.77 1010.23 1010.76 1011.36 1012.02 1012.72 1013.44 1014.16 1014.85 1015.49 1016.08 1016.60 1017.05 1017.43 1017.75 1018.03
1002.04 1002.33 1002.66 1003.03 1003.43 1003.84 1004.27 1004.70 1005.13 1005.55 1005.96 1006.36 1006.73 1007.07 1007.39 1007.67 1007.92 1008.14 1008.35 1008.57 1008.80 1009.07 1009.40 1009.80 1010.27 1010.82 1011.44 1012.11 1012.83 1013.55 1014.27 1014.95 1015.58 1016.15 1016.64 1017.05 1017.39 1017.68
1002.14 1002.42 1002.73 1003.07 1003.43 1003.79 1004.17 1004.54 1004.93 1005.31 1005.69 1006.07 1006.43 1006.78 1007.11 1007.41 1007.67 1007.91 1008.13 1008.33 1008.55 1008.78 1009.07 1009.41 1009.82 1010.31 1010.88 1011.51 1012.20 1012.91 1013.62 1014.32 1014.97 1015.56 1016.08 1016.52 1016.89 1017.19
1002.26 1002.51 1002.79 1003.07 1003.36 1003.66 1003.97 1004.29 1004.61 1004.95 1005.30 1005.65 1006.02 1006.38 1006.72 1007.05 1007.34 1007.61 1007.85 1008.07 1008.28 1008.50 1008.76 1009.06 1009.42 1009.86 1010.37 1010.95 1011.59 1012.27 1012.96 1013.65 1014.31 1014.92 1015.45 1015.92 1016.31 1016.64
1002.35 1002.56 1002.78 1003.00 1003.22 1003.44 1003.68 1003.93 1004.19 1004.48 1004.80 1005.14 1005.50 1005.87 1006.24 1006.60 1006.93 1007.23 1007.50 1007.75 1007.98 1008.20 1008.45 1008.72 1009.05 1009.44 1009.90 1010.43 1011.02 1011.66 1012.33 1013.00 1013.65 1014.25 1014.81 1015.29 1015.71 1016.07
1002.36 1002.52 1002.68 1002.83 1002.98 1003.14 1003.30 1003.49 1003.71 1003.96 1004.24 1004.57 1004.92 1005.30 1005.68 1006.07 1006.43 1006.77 1007.08 1007.36 1007.61 1007.85 1008.10 1008.37 1008.68 1009.04 1009.46 1009.95 1010.50 1011.10 1011.73 1012.38 1013.01 1013.62 1014.18 1014.68 1015.13 1015.52
1002.26 1002.38 1002.48 1002.57 1002.67 1002.77 1002.88 1003.02 1003.20 1003.41 1003.67 1003.97 1004.32 1004.69 1005.08 1005.47 1005.85 1006.21 1006.55 1006.86 1007.14 1007.40 1007.67 1007.95 1008.26 1008.61 1009.02 1009.48 1010.00 1010.57 1011.18 1011.80 1012.42 1013.02 1013.59 1014.11 1014.58 1015.01
1002.08 1002.15 1002.21 1002.26 1002.32 1002.38 1002.46 1002.56 1002.70 1002.89 1003.12 1003.39 1003.71 1004.06 1004.43 1004.81 1005.19 1005.55 1005.90 1006.23 1006.53 1006.82 1007.11 1007.42 1007.74 1008.11 1008.52 1008.98 1009.49 1010.05 1010.64 1011.25 1011.86 1012.46 1013.03 1013.56 1014.06 1014.52
Thickness
5641 5644 5648 5652 5656 5661 5666 5669 5671 5672 5679 5690 5697 5705 5709 5711 5714 5715 5716 5718 5719 5720 5721 5722 5723 5723 5723 5722 5722 5722 5722 5721 5721 5721 5720 5720 5719 5718
5630 5633 5636 5641 5646 5651 5656 5661 5665 5668 5671 5680 5688 5695 5700 5703 5705 5708 5709 5711 5713 5714 5716 5717 5718 5719 5719 5719 5720 5720 5720 5720 5720 5719 5719 5718 5718 5717
5619 5622 5626 5630 5634 5639 5644 5650 5656 5661 5664 5672 5678 5685 5689 5694 5696 5698 5700 5702 5704 5707 5709 5711 5712 5713 5714 5715 5715 5716 5717 5717 5717 5717 5717 5717 5717 5716
5608 5611 5615 5619 5623 5628 5633 5639 5645 5651 5656 5661 5668 5674 5679 5684 5687 5689 5690 5693 5696 5699 5702 5704 5705 5707 5708 5709 5710 5711 5713 5714 5714 5714 5715 5715 5715 5714
5596 5600 5604 5608 5611 5616 5622 5628 5634 5641 5647 5651 5657 5663 5668 5673 5675 5679 5681 5683 5686 5688 5692 5695 5697 5699 5701 5703 5705 5706 5708 5709 5710 5711 5712 5712 5712 5712
5584 5589 5593 5597 5601 5606 5611 5616 5622 5628 5634 5640 5646 5651 5657 5663 5667 5668 5669 5672 5675 5679 5682 5685 5688 5691 5693 5696 5698 5701 5703 5705 5706 5707 5709 5710 5710 5710
5571 5576 5581 5586 5591 5595 5601 5605 5610 5615 5621 5627 5633 5639 5645 5651 5657 5661 5662 5662 5665 5670 5673 5676 5679 5682 5684 5688 5691 5694 5697 5699 5701 5703 5704 5705 5706 5706
5558 5563 5568 5574 5579 5584 5591 5596 5601 5605 5609 5615 5621 5628 5636 5643 5649 5652 5654 5654 5656 5660 5665 5666 5670 5672 5675 5679 5683 5687 5690 5693 5695 5697 5698 5700 5700 5700
5546 5551 5557 5564 5567 5572 5578 5584 5590 5597 5603 5607 5611 5618 5625 5634 5640 5643 5646 5650 5654 5657 5657 5657 5660 5663 5666 5670 5675 5678 5682 5685 5688 5690 5691 5692 5693 5693
5537 5540 5544 5550 5555 5560 5565 5571 5577 5584 5592 5599 5605 5610 5616 5623 5630 5637 5640 5641 5644 5647 5652 5651 5652 5655 5657 5661 5665 5669 5673 5677 5679 5681 5682 5684 5685 5686
5528 5531 5535 5540 5545 5549 5554 5559 5565 5572 5579 5586 5593 5599 5606 5613 5620 5624 5628 5632 5635 5639 5644 5647 5647 5647 5648 5651 5655 5659 5663 5667 5670 5672 5673 5675 5676 5677
5519 5522 5527 5531 5535 5539 5543 5549 5554 5560 5568 5574 5580 5587 5594 5602 5609 5616 5622 5626 5630 5633 5638 5641 5641 5641 5640 5642 5646 5649 5653 5656 5659 5662 5664 5666 5667 5667
5512 5514 5518 5522 5526 5530 5536 5542 5548 5553 5557 5563 5569 5575 5583 5590 5599 5607 5615 5622 5626 5630 5635 5637 5636 5636 5637 5636 5637 5641 5644 5647 5649 5651 5654 5656 5658 5659
5507 5509 5512 5515 5519 5523 5528 5535 5540 5545 5549 5554 5559 5565 5572 5580 5589 5597 5605 5613 5620 5626 5630 5633 5634 5634 5633 5632 5632 5633 5635 5638 5641 5643 5645 5646 5648 5648
5503 5505 5507 5510 5513 5517 5522 5528 5533 5536 5541 5546 5552 5558 5566 5574 5581 5587 5595 5602 5609 5615 5620 5626 5630 5631 5632 5632 5631 5631 5630 5630 5633 5635 5636 5638 5640 5640
5500 5501 5503 5505 5509 5513 5518 5522 5527 5532 5537 5541 5546 5552 5558 5566 5572 5579 5586 5593 5599 5604 5610 5616 5622 5625 5626 5628 5630 5628 5628 5628 5628 5629 5629 5630 5632 5633
5498 5497 5498 5501 5504 5508 5512 5517 5522 5526 5531 5536 5540 5545 5551 5558 5565 5572 5579 5585 5591 5597 5601 5605 5610 5616 5620 5622 5621 5623 5624 5624 5625 5624 5622 5622 5624 5626
5497 5498 5499 5501 5503 5507 5510 5514 5518 5522 5527 5532 5536 5540 5546 5552 5558 5565 5572 5579 5585 5590 5595 5598 5602 5604 5607 5611 5618 5620 5619 5620 5620 5619 5618 5617 5617 5619
5497 5499 5500 5502 5504 5507 5510 5513 5517 5521 5525 5529 5533 5537 5542 5547 5553 5559 5566 5572 5578 5584 5588 5592 5597 5601 5604 5606 5608 5615 5617 5616 5615 5613 5612 5613 5613 5614
5499 5501 5502 5504 5506 5509 5511 5514 5517 5520 5523 5527 5531 5535 5539 5543 5548 5555 5561 5567 5573 5577 5582 5587 5593 5599 5604 5606 5605 5607 5611 5613 5612 5610 5607 5606 5607 5608
5503 5504 5505 5507 5509 5511 5514 5516 5519 5521 5524 5527 5530 5533 5537 5540 5545 5551 5557 5562 5568 5573 5578 5584 5590 5593 5596 5597 5598 5601 5603 5606 5610 5609 5605 5601 5600 5599
5508 5508 5510 5511 5513 5515 5516 5518 5520 5522 5525 5528 5531 5533 5536 5540 5544 5549 5554 5559 5564 5571 5575 5578 5581 5585 5589 5594 5597 5597 5597 5598 5600 5602 5603 5604 5602 5598
5513 5513 5514 5515 5517 5518 5519 5521 5523 5525 5527 5529 5531 5534 5536 5539 5543 5547 5552 5557 5562 5566 5570 5573 5576 5580 5585 5590 5591 5592 5592 5592 5593 5593 5594 5597 5600 5601